Year,Month,Day,Hour,Minute,Value (Times are PST for windgust in km/hr)
2015,09,21,00,03,1.60
2015,09,21,00,04,1.60
2015,09,21,00,11,3.20
2015,09,21,00,12,1.60
2015,09,21,00,13,4.80
2015,09,21,00,14,3.20
2015,09,21,00,15,4.80
2015,09,21,00,16,4.80
2015,09,21,00,17,4.80
2015,09,21,00,18,1.60
2015,09,21,00,23,1.60
2015,09,21,00,24,1.60
2015,09,21,00,25,4.80
2015,09,21,00,26,4.80
2015,09,21,00,27,6.40
2015,09,21,00,28,6.40
2015,09,21,00,29,6.40
2015,09,21,00,30,8.10
2015,09,21,00,31,3.20
2015,09,21,00,32,4.80
2015,09,21,00,33,1.60
2015,09,21,00,34,3.20
2015,09,21,00,36,6.40
2015,09,21,00,37,4.80
2015,09,21,00,38,4.80
2015,09,21,00,39,3.20
2015,09,21,00,40,3.20
2015,09,21,00,41,1.60
2015,09,21,00,42,1.60
2015,09,21,00,45,3.20
2015,09,21,00,46,3.20
2015,09,21,00,47,3.20
2015,09,21,00,49,1.60
2015,09,21,00,51,3.20
2015,09,21,00,52,1.60
2015,09,21,00,54,3.20
2015,09,21,00,55,3.20
2015,09,21,01,00,3.20
2015,09,21,01,01,1.60
2015,09,21,01,03,3.20
2015,09,21,01,04,4.80
2015,09,21,01,05,1.60
2015,09,21,01,06,3.20
2015,09,21,01,07,3.20
2015,09,21,01,08,3.20
2015,09,21,01,09,1.60
2015,09,21,01,10,3.20
2015,09,21,01,11,3.20
2015,09,21,01,13,3.20
2015,09,21,01,14,4.80
2015,09,21,01,15,3.20
2015,09,21,01,21,1.60
2015,09,21,01,23,1.60
2015,09,21,01,24,1.60
2015,09,21,01,25,4.80
2015,09,21,01,26,4.80
2015,09,21,01,27,3.20
2015,09,21,01,31,3.20
2015,09,21,01,32,3.20
2015,09,21,01,35,1.60
2015,09,21,01,36,4.80
2015,09,21,01,37,3.20
2015,09,21,01,38,1.60
2015,09,21,01,41,3.20
2015,09,21,01,42,4.80
2015,09,21,01,46,3.20
2015,09,21,01,47,1.60
2015,09,21,01,49,1.60
2015,09,21,01,50,3.20
2015,09,21,01,51,3.20
2015,09,21,01,58,1.60
2015,09,21,02,22,1.60
2015,09,21,02,23,3.20
2015,09,21,02,24,3.20
2015,09,21,02,25,1.60
2015,09,21,02,31,3.20
2015,09,21,02,32,3.20
2015,09,21,02,33,3.20
2015,09,21,02,39,1.60
2015,09,21,03,15,1.60
2015,09,21,03,38,1.60
2015,09,21,04,14,1.60
2015,09,21,04,17,1.60
2015,09,21,04,37,3.20
2015,09,21,04,38,1.60
2015,09,21,04,43,1.60
2015,09,21,04,54,1.60
2015,09,21,04,57,1.60
2015,09,21,05,01,1.60
2015,09,21,06,14,4.80
2015,09,21,06,16,3.20
2015,09,21,06,17,3.20
2015,09,21,06,18,3.20
2015,09,21,06,19,3.20
2015,09,21,06,25,1.60
2015,09,21,06,26,3.20
2015,09,21,06,27,3.20
2015,09,21,06,38,1.60
2015,09,21,06,39,3.20
2015,09,21,07,12,3.20
2015,09,21,07,13,3.20
2015,09,21,07,14,3.20
2015,09,21,07,19,1.60
2015,09,21,07,20,3.20
2015,09,21,07,25,3.20
2015,09,21,07,26,1.60
2015,09,21,07,28,4.80
2015,09,21,07,29,4.80
2015,09,21,07,30,1.60
2015,09,21,07,31,1.60
2015,09,21,07,34,3.20
2015,09,21,07,35,1.60
2015,09,21,07,37,1.60
2015,09,21,07,38,1.60
2015,09,21,07,40,1.60
2015,09,21,07,53,1.60
2015,09,21,07,58,1.60
2015,09,21,07,59,1.60
2015,09,21,08,00,3.20
2015,09,21,08,01,1.60
2015,09,21,08,10,1.60
2015,09,21,08,18,3.20
2015,09,21,08,19,1.60
2015,09,21,08,22,3.20
2015,09,21,08,23,1.60
2015,09,21,08,24,4.80
2015,09,21,08,25,3.20
2015,09,21,08,26,3.20
2015,09,21,08,29,1.60
2015,09,21,08,30,1.60
2015,09,21,08,34,1.60
2015,09,21,08,43,1.60
2015,09,21,08,45,3.20
2015,09,21,08,53,1.60
2015,09,21,08,54,1.60
2015,09,21,08,55,4.80
2015,09,21,08,56,4.80
2015,09,21,08,57,1.60
2015,09,21,08,59,1.60
2015,09,21,09,00,1.60
2015,09,21,09,01,4.80
2015,09,21,09,02,4.80
2015,09,21,09,03,1.60
2015,09,21,09,04,4.80
2015,09,21,09,05,3.20
2015,09,21,09,06,4.80
2015,09,21,09,07,3.20
2015,09,21,09,08,4.80
2015,09,21,09,09,4.80
2015,09,21,09,10,3.20
2015,09,21,09,11,3.20
2015,09,21,09,12,3.20
2015,09,21,09,13,3.20
2015,09,21,09,14,4.80
2015,09,21,09,15,4.80
2015,09,21,09,16,3.20
2015,09,21,09,17,4.80
2015,09,21,09,18,4.80
2015,09,21,09,19,3.20
2015,09,21,09,20,1.60
2015,09,21,09,21,1.60
2015,09,21,09,22,1.60
2015,09,21,09,23,3.20
2015,09,21,09,24,8.10
2015,09,21,09,25,8.10
2015,09,21,09,26,4.80
2015,09,21,09,27,1.60
2015,09,21,09,30,6.40
2015,09,21,09,31,4.80
2015,09,21,09,32,1.60
2015,09,21,09,34,3.20
2015,09,21,09,35,4.80
2015,09,21,09,36,1.60
2015,09,21,09,37,6.40
2015,09,21,09,38,8.10
2015,09,21,09,39,4.80
2015,09,21,09,40,6.40
2015,09,21,09,41,4.80
2015,09,21,09,42,4.80
2015,09,21,09,43,3.20
2015,09,21,09,44,1.60
2015,09,21,09,45,3.20
2015,09,21,09,46,1.60
2015,09,21,09,47,1.60
2015,09,21,09,48,6.40
2015,09,21,09,49,4.80
2015,09,21,09,50,6.40
2015,09,21,09,51,3.20
2015,09,21,09,55,4.80
2015,09,21,09,56,3.20
2015,09,21,09,57,4.80
2015,09,21,09,58,4.80
2015,09,21,09,59,3.20
2015,09,21,10,00,3.20
2015,09,21,10,01,3.20
2015,09,21,10,03,1.60
2015,09,21,10,05,1.60
2015,09,21,10,07,6.40
2015,09,21,10,08,1.60
2015,09,21,10,09,8.10
2015,09,21,10,10,8.10
2015,09,21,10,11,4.80
2015,09,21,10,12,6.40
2015,09,21,10,13,8.10
2015,09,21,10,14,6.40
2015,09,21,10,15,4.80
2015,09,21,10,16,3.20
2015,09,21,10,17,6.40
2015,09,21,10,18,4.80
2015,09,21,10,20,3.20
2015,09,21,10,21,4.80
2015,09,21,10,22,4.80
2015,09,21,10,23,6.40
2015,09,21,10,25,4.80
2015,09,21,10,26,1.60
2015,09,21,10,27,9.60
2015,09,21,10,28,8.10
2015,09,21,10,29,3.20
2015,09,21,10,30,3.20
2015,09,21,10,31,9.60
2015,09,21,10,32,9.60
2015,09,21,10,33,6.40
2015,09,21,10,34,6.40
2015,09,21,10,35,8.10
2015,09,21,10,36,9.60
2015,09,21,10,37,3.20
2015,09,21,10,38,3.20
2015,09,21,10,39,9.60
2015,09,21,10,40,8.10
2015,09,21,10,41,8.10
2015,09,21,10,42,8.10
2015,09,21,10,43,3.20
2015,09,21,10,44,6.40
2015,09,21,10,45,6.40
2015,09,21,10,46,9.60
2015,09,21,10,47,4.80
2015,09,21,10,48,9.60
2015,09,21,10,49,6.40
2015,09,21,10,50,9.60
2015,09,21,10,51,6.40
2015,09,21,10,52,8.10
2015,09,21,10,53,11.30
2015,09,21,10,54,11.30
2015,09,21,10,55,9.60
2015,09,21,10,56,9.60
2015,09,21,10,57,11.30
2015,09,21,10,58,8.10
2015,09,21,10,59,1.60
2015,09,21,11,00,6.40
2015,09,21,11,01,9.60
2015,09,21,11,02,6.40
2015,09,21,11,03,11.30
2015,09,21,11,04,8.10
2015,09,21,11,05,6.40
2015,09,21,11,06,6.40
2015,09,21,11,07,11.30
2015,09,21,11,08,11.30
2015,09,21,11,09,12.90
2015,09,21,11,10,9.60
2015,09,21,11,11,9.60
2015,09,21,11,12,9.60
2015,09,21,11,13,6.40
2015,09,21,11,14,6.40
2015,09,21,11,15,8.10
2015,09,21,11,16,9.60
2015,09,21,11,17,9.60
2015,09,21,11,18,8.10
2015,09,21,11,19,6.40
2015,09,21,11,20,6.40
2015,09,21,11,21,9.60
2015,09,21,11,22,9.60
2015,09,21,11,23,9.60
2015,09,21,11,24,8.10
2015,09,21,11,25,12.90
2015,09,21,11,26,8.10
2015,09,21,11,27,6.40
2015,09,21,11,28,8.10
2015,09,21,11,29,8.10
2015,09,21,11,30,6.40
2015,09,21,11,31,4.80
2015,09,21,11,32,6.40
2015,09,21,11,33,8.10
2015,09,21,11,34,4.80
2015,09,21,11,35,3.20
2015,09,21,11,36,3.20
2015,09,21,11,37,6.40
2015,09,21,11,38,6.40
2015,09,21,11,39,11.30
2015,09,21,11,40,8.10
2015,09,21,11,41,6.40
2015,09,21,11,42,9.60
2015,09,21,11,43,8.10
2015,09,21,11,44,4.80
2015,09,21,11,45,8.10
2015,09,21,11,46,14.50
2015,09,21,11,47,3.20
2015,09,21,11,48,6.40
2015,09,21,11,49,4.80
2015,09,21,11,50,6.40
2015,09,21,11,51,11.30
2015,09,21,11,52,11.30
2015,09,21,11,53,8.10
2015,09,21,11,54,8.10
2015,09,21,11,55,6.40
2015,09,21,11,56,9.60
2015,09,21,11,57,8.10
2015,09,21,11,58,9.60
2015,09,21,11,59,9.60
2015,09,21,12,00,9.60
2015,09,21,12,01,4.80
2015,09,21,12,02,9.60
2015,09,21,12,03,4.80
2015,09,21,12,04,4.80
2015,09,21,12,05,6.40
2015,09,21,12,06,1.60
2015,09,21,12,07,3.20
2015,09,21,12,08,8.10
2015,09,21,12,09,6.40
2015,09,21,12,10,4.80
2015,09,21,12,11,3.20
2015,09,21,12,12,9.60
2015,09,21,12,13,8.10
2015,09,21,12,14,11.30
2015,09,21,12,15,11.30
2015,09,21,12,16,6.40
2015,09,21,12,17,11.30
2015,09,21,12,18,11.30
2015,09,21,12,19,17.70
2015,09,21,12,20,9.60
2015,09,21,12,21,12.90
2015,09,21,12,22,8.10
2015,09,21,12,23,8.10
2015,09,21,12,24,4.80
2015,09,21,12,25,6.40
2015,09,21,12,26,1.60
2015,09,21,12,27,6.40
2015,09,21,12,28,8.10
2015,09,21,12,29,6.40
2015,09,21,12,30,6.40
2015,09,21,12,31,9.60
2015,09,21,12,32,8.10
2015,09,21,12,33,4.80
2015,09,21,12,34,6.40
2015,09,21,12,35,8.10
2015,09,21,12,36,8.10
2015,09,21,12,37,6.40
2015,09,21,12,38,6.40
2015,09,21,12,39,8.10
2015,09,21,12,40,9.60
2015,09,21,12,41,4.80
2015,09,21,12,42,1.60
2015,09,21,12,44,3.20
2015,09,21,12,45,6.40
2015,09,21,12,46,4.80
2015,09,21,12,47,4.80
2015,09,21,12,48,8.10
2015,09,21,12,49,4.80
2015,09,21,12,50,6.40
2015,09,21,12,51,9.60
2015,09,21,12,52,6.40
2015,09,21,12,53,8.10
2015,09,21,12,54,8.10
2015,09,21,12,55,8.10
2015,09,21,12,56,6.40
2015,09,21,12,57,6.40
2015,09,21,12,58,4.80
2015,09,21,12,59,9.60
2015,09,21,13,00,4.80
2015,09,21,13,01,3.20
2015,09,21,13,02,4.80
2015,09,21,13,03,6.40
2015,09,21,13,04,6.40
2015,09,21,13,05,1.60
2015,09,21,13,06,8.10
2015,09,21,13,07,14.50
2015,09,21,13,08,9.60
2015,09,21,13,09,9.60
2015,09,21,13,10,8.10
2015,09,21,13,11,8.10
2015,09,21,13,12,8.10
2015,09,21,13,13,8.10
2015,09,21,13,14,8.10
2015,09,21,13,15,6.40
2015,09,21,13,16,6.40
2015,09,21,13,17,6.40
2015,09,21,13,18,9.60
2015,09,21,13,19,11.30
2015,09,21,13,20,8.10
2015,09,21,13,21,4.80
2015,09,21,13,22,8.10
2015,09,21,13,23,8.10
2015,09,21,13,24,6.40
2015,09,21,13,25,8.10
2015,09,21,13,26,8.10
2015,09,21,13,27,9.60
2015,09,21,13,28,9.60
2015,09,21,13,29,9.60
2015,09,21,13,30,4.80
2015,09,21,13,31,4.80
2015,09,21,13,32,9.60
2015,09,21,13,33,11.30
2015,09,21,13,34,8.10
2015,09,21,13,35,6.40
2015,09,21,13,36,1.60
2015,09,21,13,37,8.10
2015,09,21,13,38,9.60
2015,09,21,13,39,3.20
2015,09,21,13,40,3.20
2015,09,21,13,41,8.10
2015,09,21,13,42,9.60
2015,09,21,13,43,9.60
2015,09,21,13,44,4.80
2015,09,21,13,45,9.60
2015,09,21,13,46,8.10
2015,09,21,13,47,9.60
2015,09,21,13,48,9.60
2015,09,21,13,49,14.50
2015,09,21,13,50,11.30
2015,09,21,13,51,8.10
2015,09,21,13,52,1.60
2015,09,21,13,53,1.60
2015,09,21,13,54,3.20
2015,09,21,13,55,12.90
2015,09,21,13,56,6.40
2015,09,21,13,57,8.10
2015,09,21,13,58,9.60
2015,09,21,13,59,9.60
2015,09,21,14,00,6.40
2015,09,21,14,01,4.80
2015,09,21,14,02,4.80
2015,09,21,14,03,9.60
2015,09,21,14,04,8.10
2015,09,21,14,05,6.40
2015,09,21,14,06,4.80
2015,09,21,14,07,8.10
2015,09,21,14,08,9.60
2015,09,21,14,09,8.10
2015,09,21,14,10,6.40
2015,09,21,14,11,4.80
2015,09,21,14,12,4.80
2015,09,21,14,13,8.10
2015,09,21,14,14,4.80
2015,09,21,14,15,3.20
2015,09,21,14,16,4.80
2015,09,21,14,18,6.40
2015,09,21,14,19,9.60
2015,09,21,14,20,6.40
2015,09,21,14,21,3.20
2015,09,21,14,22,4.80
2015,09,21,14,23,4.80
2015,09,21,14,24,8.10
2015,09,21,14,25,4.80
2015,09,21,14,26,8.10
2015,09,21,14,27,9.60
2015,09,21,14,28,11.30
2015,09,21,14,29,9.60
2015,09,21,14,30,1.60
2015,09,21,14,31,9.60
2015,09,21,14,32,9.60
2015,09,21,14,33,11.30
2015,09,21,14,34,9.60
2015,09,21,14,35,4.80
2015,09,21,14,36,6.40
2015,09,21,14,37,8.10
2015,09,21,14,38,9.60
2015,09,21,14,39,6.40
2015,09,21,14,40,8.10
2015,09,21,14,41,6.40
2015,09,21,14,42,9.60
2015,09,21,14,43,9.60
2015,09,21,14,44,9.60
2015,09,21,14,45,6.40
2015,09,21,14,46,8.10
2015,09,21,14,47,6.40
2015,09,21,14,48,6.40
2015,09,21,14,49,8.10
2015,09,21,14,50,8.10
2015,09,21,14,51,9.60
2015,09,21,14,52,11.30
2015,09,21,14,53,9.60
2015,09,21,14,54,8.10
2015,09,21,14,55,11.30
2015,09,21,14,56,3.20
2015,09,21,14,57,6.40
2015,09,21,14,58,6.40
2015,09,21,14,59,6.40
2015,09,21,15,00,6.40
2015,09,21,15,01,9.60
2015,09,21,15,02,6.40
2015,09,21,15,03,9.60
2015,09,21,15,04,4.80
2015,09,21,15,05,6.40
2015,09,21,15,06,6.40
2015,09,21,15,07,8.10
2015,09,21,15,08,6.40
2015,09,21,15,09,8.10
2015,09,21,15,10,8.10
2015,09,21,15,11,3.20
2015,09,21,15,12,8.10
2015,09,21,15,13,4.80
2015,09,21,15,14,4.80
2015,09,21,15,15,11.30
2015,09,21,15,16,8.10
2015,09,21,15,17,8.10
2015,09,21,15,18,8.10
2015,09,21,15,19,6.40
2015,09,21,15,20,3.20
2015,09,21,15,21,4.80
2015,09,21,15,22,3.20
2015,09,21,15,23,4.80
2015,09,21,15,24,6.40
2015,09,21,15,25,8.10
2015,09,21,15,26,9.60
2015,09,21,15,27,8.10
2015,09,21,15,28,3.20
2015,09,21,15,29,6.40
2015,09,21,15,30,4.80
2015,09,21,15,31,6.40
2015,09,21,15,32,4.80
2015,09,21,15,33,8.10
2015,09,21,15,34,4.80
2015,09,21,15,35,1.60
2015,09,21,15,36,3.20
2015,09,21,15,37,4.80
2015,09,21,15,38,4.80
2015,09,21,15,39,3.20
2015,09,21,15,40,8.10
2015,09,21,15,41,8.10
2015,09,21,15,42,8.10
2015,09,21,15,43,4.80
2015,09,21,15,44,6.40
2015,09,21,15,45,6.40
2015,09,21,15,46,6.40
2015,09,21,15,47,9.60
2015,09,21,15,48,6.40
2015,09,21,15,49,6.40
2015,09,21,15,50,12.90
2015,09,21,15,51,8.10
2015,09,21,15,52,8.10
2015,09,21,15,53,9.60
2015,09,21,15,54,4.80
2015,09,21,15,55,4.80
2015,09,21,15,56,6.40
2015,09,21,15,57,4.80
2015,09,21,15,58,6.40
2015,09,21,15,59,6.40
2015,09,21,16,00,9.60
2015,09,21,16,01,4.80
2015,09,21,16,02,6.40
2015,09,21,16,03,3.20
2015,09,21,16,04,8.10
2015,09,21,16,05,8.10
2015,09,21,16,06,6.40
2015,09,21,16,07,8.10
2015,09,21,16,08,8.10
2015,09,21,16,09,6.40
2015,09,21,16,10,6.40
2015,09,21,16,11,6.40
2015,09,21,16,12,4.80
2015,09,21,16,13,9.60
2015,09,21,16,14,9.60
2015,09,21,16,15,8.10
2015,09,21,16,16,6.40
2015,09,21,16,17,8.10
2015,09,21,16,18,8.10
2015,09,21,16,19,4.80
2015,09,21,16,20,6.40
2015,09,21,16,21,9.60
2015,09,21,16,22,9.60
2015,09,21,16,23,9.60
2015,09,21,16,24,6.40
2015,09,21,16,25,3.20
2015,09,21,16,26,3.20
2015,09,21,16,27,6.40
2015,09,21,16,28,4.80
2015,09,21,16,29,4.80
2015,09,21,16,30,4.80
2015,09,21,16,31,4.80
2015,09,21,16,32,4.80
2015,09,21,16,33,8.10
2015,09,21,16,34,6.40
2015,09,21,16,35,4.80
2015,09,21,16,36,1.60
2015,09,21,16,37,6.40
2015,09,21,16,38,4.80
2015,09,21,16,39,4.80
2015,09,21,16,40,8.10
2015,09,21,16,41,8.10
2015,09,21,16,42,4.80
2015,09,21,16,43,9.60
2015,09,21,16,44,8.10
2015,09,21,16,45,6.40
2015,09,21,16,46,6.40
2015,09,21,16,47,6.40
2015,09,21,16,48,4.80
2015,09,21,16,49,4.80
2015,09,21,16,50,6.40
2015,09,21,16,51,6.40
2015,09,21,16,52,6.40
2015,09,21,16,53,4.80
2015,09,21,16,54,6.40
2015,09,21,16,55,4.80
2015,09,21,16,56,8.10
2015,09,21,16,57,4.80
2015,09,21,16,58,4.80
2015,09,21,16,59,6.40
2015,09,21,17,00,3.20
2015,09,21,17,01,8.10
2015,09,21,17,02,9.60
2015,09,21,17,03,4.80
2015,09,21,17,04,6.40
2015,09,21,17,05,9.60
2015,09,21,17,06,9.60
2015,09,21,17,07,11.30
2015,09,21,17,08,6.40
2015,09,21,17,09,4.80
2015,09,21,17,10,8.10
2015,09,21,17,11,8.10
2015,09,21,17,12,6.40
2015,09,21,17,13,6.40
2015,09,21,17,14,8.10
2015,09,21,17,15,9.60
2015,09,21,17,16,6.40
2015,09,21,17,17,4.80
2015,09,21,17,18,11.30
2015,09,21,17,19,4.80
2015,09,21,17,20,6.40
2015,09,21,17,21,8.10
2015,09,21,17,22,6.40
2015,09,21,17,23,4.80
2015,09,21,17,24,8.10
2015,09,21,17,25,6.40
2015,09,21,17,26,6.40
2015,09,21,17,27,4.80
2015,09,21,17,28,4.80
2015,09,21,17,29,4.80
2015,09,21,17,30,8.10
2015,09,21,17,31,8.10
2015,09,21,17,32,11.30
2015,09,21,17,33,6.40
2015,09,21,17,34,6.40
2015,09,21,17,35,4.80
2015,09,21,17,36,6.40
2015,09,21,17,37,6.40
2015,09,21,17,38,6.40
2015,09,21,17,39,6.40
2015,09,21,17,40,4.80
2015,09,21,17,41,3.20
2015,09,21,17,42,3.20
2015,09,21,17,43,4.80
2015,09,21,17,44,4.80
2015,09,21,17,45,4.80
2015,09,21,17,46,4.80
2015,09,21,17,47,3.20
2015,09,21,17,48,1.60
2015,09,21,17,49,8.10
2015,09,21,17,50,3.20
2015,09,21,17,51,6.40
2015,09,21,17,52,3.20
2015,09,21,17,53,3.20
2015,09,21,17,54,3.20
2015,09,21,17,55,1.60
2015,09,21,17,56,1.60
2015,09,21,17,57,4.80
2015,09,21,17,58,3.20
2015,09,21,17,59,3.20
2015,09,21,18,00,4.80
2015,09,21,18,01,4.80
2015,09,21,18,02,6.40
2015,09,21,18,03,8.10
2015,09,21,18,04,6.40
2015,09,21,18,05,6.40
2015,09,21,18,06,4.80
2015,09,21,18,07,3.20
2015,09,21,18,08,1.60
2015,09,21,18,09,3.20
2015,09,21,18,10,4.80
2015,09,21,18,11,4.80
2015,09,21,18,12,6.40
2015,09,21,18,13,9.60
2015,09,21,18,14,6.40
2015,09,21,18,15,3.20
2015,09,21,18,16,6.40
2015,09,21,18,17,8.10
2015,09,21,18,18,11.30
2015,09,21,18,19,11.30
2015,09,21,18,20,6.40
2015,09,21,18,21,8.10
2015,09,21,18,22,8.10
2015,09,21,18,23,3.20
2015,09,21,18,24,6.40
2015,09,21,18,25,8.10
2015,09,21,18,26,8.10
2015,09,21,18,27,6.40
2015,09,21,18,28,8.10
2015,09,21,18,29,11.30
2015,09,21,18,30,4.80
2015,09,21,18,31,6.40
2015,09,21,18,32,6.40
2015,09,21,18,33,9.60
2015,09,21,18,34,6.40
2015,09,21,18,35,6.40
2015,09,21,18,36,8.10
2015,09,21,18,37,3.20
2015,09,21,18,38,4.80
2015,09,21,18,39,4.80
2015,09,21,18,40,6.40
2015,09,21,18,41,8.10
2015,09,21,18,42,8.10
2015,09,21,18,43,8.10
2015,09,21,18,44,4.80
2015,09,21,18,45,4.80
2015,09,21,18,46,4.80
2015,09,21,18,47,4.80
2015,09,21,18,48,3.20
2015,09,21,18,49,1.60
2015,09,21,18,50,1.60
2015,09,21,18,51,3.20
2015,09,21,18,52,1.60
2015,09,21,18,53,4.80
2015,09,21,18,54,6.40
2015,09,21,18,55,4.80
2015,09,21,18,56,4.80
2015,09,21,18,57,1.60
2015,09,21,18,58,1.60
2015,09,21,19,00,1.60
2015,09,21,19,01,4.80
2015,09,21,19,03,3.20
2015,09,21,19,04,3.20
2015,09,21,19,05,3.20
2015,09,21,19,06,3.20
2015,09,21,19,08,1.60
2015,09,21,19,09,3.20
2015,09,21,19,14,1.60
2015,09,21,19,29,1.60
2015,09,21,20,03,1.60
2015,09,21,20,07,1.60
2015,09,21,20,15,1.60
2015,09,21,20,23,3.20
2015,09,21,20,24,3.20
2015,09,21,20,25,3.20
2015,09,21,20,26,3.20
2015,09,21,20,27,1.60
2015,09,21,20,30,3.20
2015,09,21,20,31,3.20
2015,09,21,20,32,3.20
2015,09,21,20,33,3.20
2015,09,21,20,34,1.60
2015,09,21,20,37,1.60
2015,09,21,20,38,3.20
2015,09,21,20,39,3.20
2015,09,21,20,44,1.60
2015,09,21,20,46,1.60
2015,09,21,20,48,4.80
2015,09,21,20,49,1.60
2015,09,21,20,50,3.20
2015,09,21,20,51,4.80
2015,09,21,20,52,4.80
2015,09,21,20,53,3.20
2015,09,21,20,54,4.80
2015,09,21,20,55,3.20
2015,09,21,20,56,3.20
2015,09,21,20,57,4.80
2015,09,21,20,58,6.40
2015,09,21,20,59,6.40
2015,09,21,21,00,4.80
2015,09,21,21,01,4.80
2015,09,21,21,02,4.80
2015,09,21,21,03,4.80
2015,09,21,21,04,3.20
2015,09,21,21,05,4.80
2015,09,21,21,06,3.20
2015,09,21,21,08,1.60
2015,09,21,21,10,1.60
2015,09,21,21,12,1.60
2015,09,21,21,13,1.60
2015,09,21,21,49,4.80
2015,09,21,21,50,1.60
2015,09,21,21,54,4.80
2015,09,21,21,55,3.20
2015,09,21,22,01,1.60
2015,09,21,22,05,1.60
2015,09,21,22,06,1.60
2015,09,21,22,08,1.60
2015,09,21,22,09,1.60
2015,09,21,22,10,1.60
2015,09,21,22,14,3.20
2015,09,21,22,24,1.60
2015,09,21,22,32,1.60
2015,09,21,22,45,3.20
2015,09,21,22,46,4.80
2015,09,21,22,47,3.20
2015,09,21,22,48,1.60
2015,09,21,22,51,1.60
2015,09,21,22,53,1.60
2015,09,21,22,54,1.60
2015,09,21,22,56,3.20
2015,09,21,22,57,3.20
2015,09,21,22,58,3.20
2015,09,21,22,59,1.60
2015,09,21,23,04,1.60
2015,09,21,23,05,3.20
2015,09,21,23,09,4.80
2015,09,21,23,10,3.20
2015,09,21,23,15,1.60
2015,09,21,23,17,3.20
2015,09,21,23,18,1.60
2015,09,21,23,25,1.60
2015,09,21,23,38,1.60
2015,09,21,23,41,1.60
2015,09,21,23,45,3.20
2015,09,21,23,46,3.20
2015,09,21,23,47,1.60
2015,09,21,23,48,3.20
2015,09,21,23,49,3.20
2015,09,21,23,50,1.60
2015,09,21,23,51,1.60
2015,09,21,23,52,4.80
2015,09,21,23,53,3.20
2015,09,21,23,54,3.20
2015,09,21,23,55,1.60
2015,09,21,23,57,1.60
